Retour au catalogue

CZ-6A DEB

ActifPO
NORAD 60857·DEBRIS·🇨🇳 China

Lancé Aug 6, 2024 depuis Taiyuan Satellite Launch Center

Loading…

Prochains Passages (prochaines 24 heures)

TLE

FraisSource: Space-Track

Époque: Sep 14, 2026, 17:38 UTC

1 60857U 24140JL  26257.73498625  .00000566  00000-0  15716-3 0  9993
2 60857  88.9660 258.2807 0059993 339.3384  20.5394 14.44156329109669

Suivez CZ-6A DEB en temps réel avec AllMySat

Download on the App Store